Flag for Canada Weather past 2 weeks in Hay River, Northwest Territories, Canada

Now
45 °F

Partly sunny.


Feels Like: 39 °F
Forecast: 22 / 43 °F
Wind: 10 mph from South

Location: Hay River

Current Time: Apr 26, 2015 at 11:20:17 AM

Latest Report: Apr 26, 2015 at 11:00 AM


Visibility: 15 mi

Pressure: 30.17 "Hg

Humidity: 29%

Dew point: 14 °F

Location of Hay RiverLocation

Historic Weather in Hay River — Graph

°F

Hay River temperature yesterday

Maximum temperature yesterday: 32 °F (at 4:00 PM)
Minimum temperature yesterday: 14 °F (at 1:00 AM)
Average temperature yesterday: 23 °F

Past Weeks' High & Low Weather Summary

 TemperatureHumidityPressure
High57 °F (Apr 11, 4:00 PM)93% (Apr 12, 12:55 PM)30.32 "Hg (Apr 12, 12:55 PM)
Low10 °F (Apr 14, 5:00 AM)27% (Apr 22, 5:00 PM)29.05 "Hg (Apr 11, 1:00 PM)
Average34 °F66%29.91 "Hg
* Reported Apr 11 10:00 AM — Apr 26 10:00 AM, Hay River, Weather by CustomWeather, © 2015

Note: Actual official high and low records may vary slightly from our data, if they occured in-between our weather recording intervals... More about our weather records

Advertising

Hay River weather history for previous 24 hours

 ConditionsComfort  
Time TempWeatherWind HumidityBarometerVisibility
10:00 AM
Sun, Apr 26
41 °FPassing clouds.10 mph39%30.18 "Hg15 mi
9:00 AM37 °FPassing clouds.10 mph48%30.18 "Hg15 mi
8:00 AM30 °FPassing clouds.7 mph64%30.18 "Hg15 mi
7:00 AM27 °FPassing clouds.7 mph74%30.19 "Hg15 mi
6:00 AM25 °FPassing clouds.6 mph74%30.19 "Hg15 mi
5:00 AM21 °FPassing clouds.5 mph93%30.19 "Hg15 mi
4:00 AM23 °FPassing clouds.6 mph86%30.19 "Hg15 mi
3:00 AM23 °FPassing clouds.9 mph86%30.19 "Hg15 mi
2:00 AM23 °FPassing clouds.8 mph86%30.20 "Hg15 mi
1:00 AM23 °FPassing clouds.8 mph86%30.20 "Hg15 mi
12:00 AM23 °FPassing clouds.8 mph86%30.21 "Hg15 mi
11:00 PM
Sat, Apr 25
23 °FPassing clouds.9 mph93%30.22 "Hg15 mi
10:00 PM25 °FPassing clouds.10 mph86%30.23 "Hg15 mi
9:00 PM27 °FPassing clouds.13 mph86%30.23 "Hg15 mi
8:00 PM28 °FPassing clouds.10 mph80%30.24 "Hg15 mi
7:00 PM30 °FPassing clouds.12 mph75%30.25 "Hg15 mi
6:00 PM32 °FScattered clouds.13 mph64%30.26 "Hg15 mi
5:00 PM30 °FScattered clouds.14 mph64%30.27 "Hg15 mi
4:00 PM32 °FScattered clouds.9 mph60%30.28 "Hg15 mi
3:00 PM30 °FScattered clouds.14 mph64%30.29 "Hg15 mi
2:00 PM30 °FScattered clouds.14 mph59%30.30 "Hg15 mi
1:00 PM28 °FScattered clouds.7 mph64%30.30 "Hg15 mi
12:00 PM28 °FScattered clouds.9 mph59%30.30 "Hg14 mi
11:00 AM28 °FScattered clouds.5 mph59%30.31 "Hg15 mi
Weather by CustomWeather, © 2015

See weather overviewHow to use our weather pages